TimeMST,TemperatureF,Dew PointF,Humidity,Sea Level PressureIn,VisibilityMPH,Wind Direction,Wind SpeedMPH,Gust SpeedMPH,PrecipitationIn,Events,Conditions,WindDirDegrees,DateUTC
12:03 AM,12.2,10.4,92,29.85,10.0,SSW,19.6,33.4,N/A,,Overcast,210,2012-12-09 07:03:00
12:23 AM,12.2,10.4,92,29.84,10.0,SW,24.2,32.2,N/A,,Overcast,220,2012-12-09 07:23:00
12:43 AM,12.2,10.4,92,29.84,10.0,SW,24.2,31.1,N/A,,Overcast,220,2012-12-09 07:43:00
1:03 AM,12.2,10.4,92,29.82,10.0,SSW,23.0,33.4,N/A,,Overcast,210,2012-12-09 08:03:00
1:23 AM,12.2,10.4,92,29.82,10.0,SW,21.9,33.4,N/A,,Overcast,220,2012-12-09 08:23:00
1:43 AM,12.2,10.4,92,29.81,10.0,SSW,21.9,34.5,N/A,,Overcast,210,2012-12-09 08:43:00
2:03 AM,12.2,10.4,92,29.80,10.0,SSW,20.7,34.5,N/A,,Overcast,210,2012-12-09 09:03:00
2:23 AM,12.2,10.4,92,29.79,10.0,SSW,23.0,34.5,N/A,,Overcast,210,2012-12-09 09:23:00
2:43 AM,12.2,10.4,92,29.79,10.0,SSW,20.7,33.4,N/A,,Overcast,210,2012-12-09 09:43:00
3:03 AM,12.2,10.4,92,29.78,10.0,SW,26.5,33.4,N/A,,Overcast,220,2012-12-09 10:03:00
3:23 AM,12.2,10.4,92,29.78,10.0,SSW,24.2,32.2,N/A,,Overcast,210,2012-12-09 10:23:00
3:43 AM,12.2,10.4,92,29.77,10.0,SW,24.2,35.7,N/A,,Overcast,220,2012-12-09 10:43:00
4:03 AM,12.2,10.4,92,29.77,10.0,SW,23.0,33.4,N/A,,Overcast,220,2012-12-09 11:03:00
4:23 AM,12.2,10.4,92,29.77,10.0,SW,21.9,32.2,N/A,,Overcast,220,2012-12-09 11:23:00
4:43 AM,10.4,10.4,100,29.76,10.0,SW,20.7,31.1,N/A,,Overcast,230,2012-12-09 11:43:00
5:03 AM,10.4,8.6,92,29.76,10.0,SW,20.7,29.9,N/A,,Overcast,230,2012-12-09 12:03:00
5:23 AM,10.4,8.6,92,29.77,10.0,SW,19.6,29.9,N/A,,Overcast,220,2012-12-09 12:23:00
5:43 AM,10.4,8.6,92,29.76,7.0,SW,18.4,27.6,N/A,Snow,Light Snow,220,2012-12-09 12:43:00
6:03 AM,10.4,8.6,92,29.76,10.0,SW,18.4,25.3,N/A,,Overcast,220,2012-12-09 13:03:00
6:23 AM,10.4,8.6,92,29.77,5.0,SSW,18.4,26.5,N/A,Snow,Light Snow,210,2012-12-09 13:23:00
6:43 AM,10.4,8.6,92,29.77,7.0,SW,17.3,26.5,N/A,Snow,Light Snow,220,2012-12-09 13:43:00
7:03 AM,10.4,8.6,92,29.76,5.0,SW,10.4,21.9,N/A,Snow,Light Snow,220,2012-12-09 14:03:00
7:23 AM,10.4,8.6,92,29.76,2.0,SSW,16.1,25.3,N/A,,Overcast,210,2012-12-09 14:23:00
7:43 AM,10.4,8.6,92,29.76,1.5,SSW,19.6,29.9,N/A,Snow,Light Snow,210,2012-12-09 14:43:00
8:03 AM,10.4,8.6,92,29.75,0.8,SW,19.6,33.4,N/A,Snow,Snow,220,2012-12-09 15:03:00
8:23 AM,10.4,8.6,92,29.76,0.8,SW,21.9,26.5,N/A,Snow,Snow,220,2012-12-09 15:23:00
8:43 AM,10.4,8.6,92,29.76,0.5,SW,21.9,29.9,N/A,Snow,Snow,230,2012-12-09 15:43:00
9:03 AM,10.4,8.6,92,29.76,0.2,SW,15.0,24.2,N/A,Snow,Snow,220,2012-12-09 16:03:00
9:43 AM,10.4,8.6,92,29.77,0.2,SW,20.7,27.6,N/A,Snow,Snow,220,2012-12-09 16:43:00
10:03 AM,10.4,8.6,92,29.77,0.2,SSW,16.1,28.8,N/A,Snow,Heavy Snow,210,2012-12-09 17:03:00
10:23 AM,10.4,8.6,92,29.77,0.2,SSW,15.0,25.3,0.01,Snow,Snow,210,2012-12-09 17:23:00
10:43 AM,10.4,8.6,92,29.76,0.2,SW,13.8,24.2,0.01,Snow,Heavy Snow,220,2012-12-09 17:43:00
11:03 AM,10.4,8.6,92,29.76,0.2,SW,15.0,23.0,N/A,Snow,Snow,220,2012-12-09 18:03:00
11:23 AM,10.4,8.6,92,29.75,0.2,SW,15.0,26.5,0.01,Snow,Snow,220,2012-12-09 18:23:00
11:43 AM,10.4,8.6,92,29.74,0.2,SW,12.7,24.2,0.01,Snow,Snow,220,2012-12-09 18:43:00
12:03 PM,10.4,6.8,85,29.73,0.2,SW,12.7,25.3,N/A,Snow,Snow,220,2012-12-09 19:03:00
12:23 PM,8.6,6.8,92,29.73,0.5,SSW,10.4,26.5,0.01,Snow,Snow,200,2012-12-09 19:23:00
12:43 PM,8.6,5.0,85,29.73,0.8,SSW,13.8,26.5,0.01,Snow,Light Snow,210,2012-12-09 19:43:00
1:03 PM,8.6,5.0,85,29.73,0.8,South,9.2,-,N/A,Snow,Light Snow,190,2012-12-09 20:03:00
1:23 PM,8.6,5.0,85,29.73,0.8,SSW,6.9,-,0.01,Snow,Light Snow,210,2012-12-09 20:23:00
1:43 PM,8.6,5.0,85,29.73,0.8,West,5.8,-,0.02,Snow,Light Snow,280,2012-12-09 20:43:00
2:03 PM,6.8,5.0,92,29.73,10.0,North,3.5,-,N/A,,Overcast,350,2012-12-09 21:03:00
2:23 PM,5.0,3.2,92,29.74,10.0,WNW,6.9,-,0.01,,Overcast,290,2012-12-09 21:23:00
2:43 PM,3.2,-0.4,85,29.74,10.0,NW,11.5,16.1,0.01,,Overcast,310,2012-12-09 21:43:00
3:03 PM,1.4,-2.2,85,29.74,10.0,NW,10.4,17.3,N/A,,Overcast,320,2012-12-09 22:03:00
3:23 PM,1.4,-2.2,85,29.76,10.0,North,3.5,-,N/A,,Overcast,10,2012-12-09 22:23:00
3:43 PM,1.4,-0.4,92,29.77,10.0,North,3.5,-,N/A,,Overcast,10,2012-12-09 22:43:00
4:03 PM,1.4,-4.0,78,29.77,10.0,NE,11.5,-,N/A,,Overcast,40,2012-12-09 23:03:00
4:23 PM,-0.4,-4.0,85,29.78,10.0,NE,10.4,-,N/A,,Overcast,50,2012-12-09 23:23:00
4:43 PM,-0.4,-4.0,85,29.79,10.0,ENE,10.4,-,N/A,,Overcast,60,2012-12-09 23:43:00
5:03 PM,-2.2,-5.8,85,29.80,3.0,NE,13.8,-,N/A,Snow,Light Snow,40,2012-12-10 00:03:00
5:23 PM,-4.0,-7.6,85,29.81,10.0,NNE,10.4,-,N/A,,Overcast,20,2012-12-10 00:23:00
5:43 PM,-5.8,-9.4,84,29.82,10.0,NE,10.4,-,N/A,,Overcast,40,2012-12-10 00:43:00
6:03 PM,-5.8,-9.4,84,29.84,10.0,NNE,10.4,-,N/A,,Overcast,20,2012-12-10 01:03:00
6:23 PM,-5.8,-9.4,84,29.85,10.0,NE,10.4,17.3,N/A,,Overcast,40,2012-12-10 01:23:00
6:43 PM,-7.6,-11.2,84,29.85,10.0,NE,11.5,-,N/A,,Overcast,50,2012-12-10 01:43:00
7:03 PM,-7.6,-13.0,77,29.86,10.0,NE,9.2,-,N/A,,Scattered Clouds,40,2012-12-10 02:03:00
7:23 PM,-7.6,-13.0,77,29.87,10.0,NNE,11.5,16.1,N/A,,Clear,20,2012-12-10 02:23:00
7:43 PM,-7.6,-13.0,77,29.87,10.0,NNE,8.1,-,N/A,,Clear,30,2012-12-10 02:43:00
8:03 PM,-7.6,-14.8,71,29.89,10.0,NNE,9.2,-,N/A,,Clear,30,2012-12-10 03:03:00
8:23 PM,-7.6,-14.8,71,29.89,10.0,NE,6.9,-,N/A,,Clear,40,2012-12-10 03:23:00
8:43 PM,-9.4,-14.8,77,29.89,10.0,NNE,13.8,-,N/A,,Clear,30,2012-12-10 03:43:00
9:03 PM,-7.6,-14.8,71,29.91,10.0,NNE,13.8,19.6,N/A,,Clear,20,2012-12-10 04:03:00
9:23 PM,-7.6,-16.6,65,29.91,10.0,North,12.7,-,N/A,,Clear,10,2012-12-10 04:23:00
9:43 PM,-7.6,-16.6,65,29.91,10.0,North,6.9,-,N/A,,Clear,360,2012-12-10 04:43:00
10:03 PM,-7.6,-18.4,59,29.90,10.0,NNE,3.5,-,N/A,,Clear,30,2012-12-10 05:03:00
10:23 PM,-7.6,-18.4,59,29.90,10.0,NNW,8.1,-,N/A,,Scattered Clouds,330,2012-12-10 05:23:00
10:43 PM,-7.6,-20.2,54,29.91,10.0,NW,3.5,-,N/A,,Scattered Clouds,320,2012-12-10 05:43:00
11:03 PM,-7.6,-18.4,59,29.92,10.0,WNW,8.1,-,N/A,,Clear,290,2012-12-10 06:03:00
11:23 PM,-5.8,-18.4,55,29.91,10.0,NW,11.5,-,N/A,,Clear,320,2012-12-10 06:23:00
11:43 PM,-5.8,-22.0,46,29.91,10.0,South,3.5,17.3,N/A,,Clear,190,2012-12-10 06:43:00